DMSP 5D-2 F13 DEB, 40463

Orbit data source: Space-Track

DMSP 5D-2 F13 DEB, 40463 is space debris in SSO originally from a launch on Fri, 24 Mar 1995 UTC launched from the Air Force Western Test Range (AFWTR). Debris objects in space refer to the collection of defunct objects orbiting the Earth. Examples of debris include non-operational satellites, rocket bodies, and fragments generated from explosions, collisions, or faulty payload assembly.

Loading next visibility...
Identifier
40463, 1995-015BF
Orbit
SSO
Country
Flag of USUS
Related business
Manufacturer
Unknown
Mission
Spacecraft
Bus & Motor
Unknown
Mass
Unknown
Launch date (UTC)
1995-03-24 (31 years ago)
Launch vehicle
Unknown
Launch site
Air Force Western Test Range (AFWTR)
Object type
Payload
Rocket body
Debris
Shape & HBR
Unknown shape, 0.1 m
Radar Cross Section
Small (<0.1 m²)

Expand to show TLE details & history
Last TLE update: 1 day ago

TLE from 1 day ago
0 DMSP 5D-2 F13 DEB
1 40463U 95015BF  26118.35450008  .00158524  00000-0  69480-2 0  9994
2 40463  98.6141 261.6135 0006404 145.6552 214.5095 15.21261249585618
Epoch: 2026-04-28T08:30Z
TLE epoch observation values (Epoch: 2026-04-28T08:30:28.806Z)
Latitude
-0.00007°
Longitude
-82.33753°
Altitude
508.722 km
Speed
7.608 km/s
True Right ascension
17h 26m 27s
True Declination
0° 00' 00"
Sunlit
Object was in full shadow at epoch
Visualization orbit readout
Latitude
Unknown
Longitude
Unknown
Altitude
Unknown
Speed
Unknown
Apparent Right ascension
Unknown
Apparent Declination
Unknown
Sunlit
N/A
Visualization observer readout
Local Sidereal Time
16:41:47
Azimuth
Unknown
Elevation
Unknown
Doppler factor
Unknown
Orbital elements
Apogee altitude
503.459 km
Perigee altitude
494.651 km
Semi-major axis
6,877.192 km
Eccentricity
0.00064
Inclination
98.6141°
RAAN
261.6135°
Arg. of periapsis
145.6552°
True anomaly
214.46795°
Mean anomaly
214.5095°
Eccentric anomaly
214.48872°
Mean motion
3.80563 °/min
Orbital period
94.6 mins
BSTAR
0.006948

Documentation

Showing up to 5 results
|